Погода в Междуреченске

Россия / Республика Коми     63°13′20″N   48°33′58″E
темп.,
°C
ветер,
м/с
пор.,
м/с
влажн.,
%
обл.,
%
осадки,
мм/ч
давл.,
гПа
погр.,
м
15 июня, вт
вт1500:00+11зсз2394100 0.0 101156
03:00+11зюз24925 0.0 101288
06:00+14зюз236672 0.0 1013254
09:00+19зюз233684 0.0 10131518
12:00+21юз2432100 0.0 10111919
15:00+23ююз4634100 0.0 10092106
18:00+22ююз483830 0.0 10071842
21:00+18ю412516 0.0 1006385
16 июня, ср
ср1600:00+15ю311622 0.0 1005239
03:00+16ююз3106676 0.0 1005359
06:00+16юз267377 0.0 1005357
09:00+20зсз664794 0.0 10051500
12:00+19з3642100 0.0 10051684
15:00+16юз2746100 0.0 1005928
18:00+16ссз694233 0.0 10071913
21:00+10ссз59590 0.0 1011913
17 июня, чт
чт1700:00+6сз27743 0.0 1013282
03:00+4ссз24795 0.0 1015106
06:00+9с1252100 0.0 1015648
09:00+11з2244100 0.0 10151328
12:00+14зсз1239100 0.1 10161881
15:00+13зсз344750 0.1 10181621
18:00+13зсз245350 0.0 10191020
21:00+10сз256444 0.0 1020177
18 июня, пт
пт1800:00+7з22795 0.0 102120
03:00+6зюз238364 0.0 102265
06:00+12зюз366089 0.0 1022416
09:00+12зюз4955100 0.0 1021679
12:00+11ююз31173100 0.4 1019430
15:00+20з2743100 0.4 10161011
18:00+17зюз2672100 0.6 1015172
21:00+16юз31174100 0.6 1013246
19 июня, сб
сб1900:00+14юз31266100 0.0 1013275
03:00+13юз41264100 0.0 1011292
06:00+17зюз4135867 0.0 1009522
09:00+23зюз71446100 0.0 10071584
12:00+22зсз816507 0.0 10082155
15:00+19ссз813405 0.0 10131917
18:00+16ссз594515 0.0 10171709
21:00+13ссз49541 0.0 1019587